Location: Abraham Lincoln Continuation High School
(33.9711°N, 117.3662°W)
Time: 08:43:29
(UTC+00:00)

Iridium 4 Rocket - Pass Details

Date: 25 January 2021
Orbit: 583 x 906 km, 86.9° (Epoch: 24 February)

Event Time Altitude Azimuth Distance (km) Brightness Sun altitude
Rises 03:28:36 0° 345° (NNW) 3,373 7.0 -28.1°
Reaches altitude 10° 03:31:24 10° 333° (NNW) 2,384 6.3 -28.7°
Maximum altitude 03:35:45 26° 279° (W) 1,464 5.5 -29.6°
Drops below altitude 10° 03:39:47 10° 223° (SW) 2,197 6.4 -30.4°
Sets 03:42:17 0° 210° (SSW) 3,057 7.0 -31.0°
